Weather History for Hyannis, MA

Change the Weather History Date:

Wednesday, December 5, 2012

  Actual Average Record
Temperature  
Mean Temperature 47 °F -  
Max Temperature 55 °F 44 °F 64 °F (2001)
Min Temperature 37 °F 28 °F 10 °F (1935)
Degree Days  
Heating Degree Days 18    
Moisture  
Dew Point 42 °F    
Average Humidity 77    
Maximum Humidity 100    
Minimum Humidity 53    
Precipitation  
Precipitation 0.01 in - - ()
Sea Level Pressure  
Sea Level Pressure 29.93 in    
Wind  
Wind Speed 10 mph (West)    
Max Wind Speed 18 mph    
Max Gust Speed 26 mph    
Visibility 8 miles    
Events Rain    
Averages and records for this station are not official NWS values.
T = Trace of Precipitation, MM = Missing Value Source: NWS Daily Summary

Daily Weather History Graph

Daily Weather History Graph

Search for Another Location

Airport:

Trip Planner

Search our weather history database for the weather conditions in past years. The results will help you decide how hot, cold, wet, or windy it might be!

Date:

Astronomy

Dec. 05, 2012 Rise Set
Actual Time 6:53 AM EST 4:10 PM EST
Civil Twilight 6:21 AM EST 4:41 PM EST
Nautical Twilight 5:47 AM EST 5:16 PM EST
Astronomical Twilight 5:13 AM EST 5:50 PM EST
Moon 11:01 PM EST (12/5) 11:11 AM EST (12/5)
Length of Visible Light 10h 20m
Length of Day
9h 17m
Waning Gibbous, 60% of the Moon is Illuminated
Dec 5
Waning Gibbous
Dec 6
Last Quarter
Dec 13
New
Dec 20
First Quarter
Dec 28
Full

Hourly Weather History & Observations

Time (EST) Temp. Windchill Dew Point Humidity Pressure Visibility Wind Dir Wind Speed Gust Speed Precip Events Conditions
12:56 AM 51.1 °F - 48.9 °F 92% 30.02 in 10.0 mi South 10.4 mph - N/A   Mostly Cloudy
1:56 AM 52.0 °F - 50.0 °F 93% 29.99 in 8.0 mi SSW 10.4 mph 17.3 mph N/A   Overcast
2:49 AM 53.6 °F - 51.8 °F 94% 29.95 in 7.0 mi SSW 12.7 mph 21.9 mph N/A   Mostly Cloudy
2:56 AM 52.0 °F - 51.1 °F 97% 29.96 in 7.0 mi SSW 12.7 mph 20.7 mph N/A   Mostly Cloudy
3:34 AM 51.8 °F - 51.8 °F 100% 29.92 in 5.0 mi South 11.5 mph - N/A   Overcast
3:56 AM 51.1 °F - 51.1 °F 100% 29.91 in 5.0 mi South 9.2 mph - N/A   Overcast
4:56 AM 52.0 °F - 52.0 °F 100% 29.89 in 6.0 mi SSW 9.2 mph - N/A   Overcast
5:18 AM 53.6 °F - 51.8 °F 94% 29.88 in 7.0 mi SSW 11.5 mph 24.2 mph N/A   Mostly Cloudy
5:29 AM 53.6 °F - 51.8 °F 94% 29.88 in 7.0 mi SSW 11.5 mph - N/A   Scattered Clouds
5:56 AM 53.1 °F - 52.0 °F 96% 29.88 in 7.0 mi SSW 11.5 mph - N/A   Overcast
6:53 AM 53.6 °F - 53.6 °F 100% 29.88 in 5.0 mi SSW 11.5 mph - 0.01 in Rain Light Rain
6:56 AM 54.0 °F - 53.1 °F 97% 29.88 in 5.0 mi SW 13.8 mph - 0.01 in Rain Light Rain
7:56 AM 55.0 °F - 53.1 °F 93% 29.89 in 7.0 mi West 6.9 mph - 0.00 in Rain Light Rain
9:56 AM 54.0 °F - 52.0 °F 93% 29.91 in 10.0 mi Variable 4.6 mph - 0.00 in   Overcast
10:56 AM 54.0 °F - 48.0 °F 80% 29.89 in 10.0 mi WNW 8.1 mph - N/A   Mostly Cloudy
11:56 AM 55.9 °F - 45.0 °F 67% 29.87 in 10.0 mi WNW 10.4 mph - N/A   Clear
12:56 PM 55.0 °F - 42.1 °F 62% 29.87 in 10.0 mi NNW 8.1 mph - N/A   Partly Cloudy
1:56 PM 54.0 °F - 37.9 °F 55% 29.88 in 10.0 mi NNW 5.8 mph - N/A   Clear
2:56 PM 52.0 °F - 36.0 °F 54% 29.88 in 10.0 mi WNW 5.8 mph - N/A   Clear
3:56 PM 51.1 °F - 36.0 °F 56% 29.91 in 10.0 mi NW 6.9 mph - N/A   Mostly Cloudy
4:56 PM 48.9 °F - 34.0 °F 56% 29.92 in 10.0 mi WNW 6.9 mph - N/A   Clear
5:56 PM 46.9 °F - 33.1 °F 59% 29.95 in 10.0 mi WNW 5.8 mph - N/A   Clear
6:56 PM 43.0 °F 36.8 °F 28.0 °F 56% 29.99 in 10.0 mi WNW 11.5 mph 23.0 mph N/A   Partly Cloudy
7:56 PM 41.0 °F 35.8 °F 27.0 °F 57% 30.01 in 10.0 mi WNW 8.1 mph 16.1 mph N/A   Mostly Cloudy
8:56 PM 41.0 °F 33.9 °F 25.0 °F 53% 30.01 in 10.0 mi NW 12.7 mph 19.6 mph N/A   Overcast
9:56 PM 39.9 °F 30.8 °F 26.1 °F 58% 30.02 in 10.0 mi NNW 18.4 mph 26.5 mph N/A   Overcast
10:56 PM 39.0 °F 29.9 °F 23.0 °F 53% 30.05 in 10.0 mi NNW 17.3 mph 25.3 mph N/A   Overcast
11:56 PM 37.9 °F 30.0 °F 21.9 °F 53% 30.07 in 10.0 mi NNW 12.7 mph 26.5 mph N/A   Overcast